Home > Weather > Glace Bay > Past weeks

Flag for Canada Weather for the Past 2 Weeks in Glace Bay, Nova Scotia, Canada

Now
43 °F

Partly sunny.


Feels Like: 35 °F
Forecast: 36 / 44 °F
Wind: 15 mph from North

Location: Sydney

Current Time: May 4, 2016 at 1:22:33 PM

Latest Report: May 4, 2016 at 12:00 PM


Visibility: 15 mi

Pressure: 29.92 "Hg

Humidity: 81%

Dew Point: 37 °F

Location of Glace BayLocation

Historic Weather in Glace Bay — Graph

°F

Glace Bay Temperature Yesterday

Maximum temperature yesterday: 43 °F (at 3:54 PM)
Minimum temperature yesterday: 36 °F (at 12:00 AM)
Average temperature yesterday: 39 °F

High & Low Weather Summary for the Past Weeks

 TemperatureHumidityPressure
High54 °F (Apr 23, 1:00 PM)100% (Apr 20, 6:00 AM)30.30 "Hg (Apr 20, 6:00 AM)
Low23 °F (Apr 26, 4:00 AM)29% (Apr 29, 4:00 PM)29.55 "Hg (Apr 21, 1:00 PM)
Average37 °F75%29.91 "Hg
* Reported Apr 19 11:00 AM — May 4 11:00 AM, Glace Bay, Weather by CustomWeather, © 2016

Note: Actual official high and low records may vary slightly from our data, if they occured in-between our weather recording intervals... More about our weather records

Advertising

Glace Bay Weather History for the Previous 24 Hours

Scroll right to see more
 ConditionsComfort  
Time TempWeatherWind HumidityBarometerVisibility
11:00 AM
Wed, May 4
41 °FPartly sunny.14 mph87%29.90 "Hg15 mi
10:00 AM41 °FPartly sunny.16 mph87%29.90 "Hg15 mi
9:00 AM39 °FMore clouds than sun.15 mph93%29.88 "Hg15 mi
8:00 AM39 °FMore clouds than sun.15 mph93%29.87 "Hg8 mi
7:00 AM37 °FFog.7 mph100%29.85 "Hg1 mi
6:00 AM36 °FFog.6 mph100%29.83 "Hg1 mi
5:00 AM36 °FFog.9 mph100%29.82 "Hg2 mi
4:00 AM36 °FFog.9 mph100%29.81 "Hg3 mi
3:00 AM36 °FFog.8 mph100%29.81 "Hg2 mi
2:00 AM36 °FFog.5 mph100%29.80 "Hg2 mi
1:00 AM37 °FFog.9 mph93%29.80 "Hg2 mi
12:00 AM36 °FFog.5 mph100%29.80 "Hg2 mi
11:00 PM
Tue, May 3
37 °FFog.6 mph93%29.80 "Hg2 mi
10:00 PM37 °FFog.5 mph100%29.82 "Hg2 mi
9:00 PM37 °FFog.5 mph100%29.80 "Hg3 mi
8:00 PM37 °FFog.8 mph100%29.79 "Hg4 mi
7:00 PM39 °FFog.10 mph93%29.77 "Hg4 mi
6:00 PM39 °FFog.13 mph100%29.75 "Hg3 mi
5:00 PM43 °FFog.10 mph93%29.72 "Hg4 mi
4:47 PM43 °FFog.13 mph93%29.72 "Hg4 mi
4:00 PM43 °FFog.7 mph100%29.71 "Hg1 mi
3:54 PM43 °FFog.7 mph100%29.72 "Hg1 mi
3:00 PM41 °FFog.No wind100%29.71 "Hg1 mi
2:00 PM41 °FDrizzle. Fog.10 mph93%29.72 "Hg1 mi
1:00 PM39 °FDrizzle. Fog.14 mph100%29.75 "Hg1 mi
Weather by CustomWeather, © 2016

See weather overviewHow to use our weather pages